KE7YUP Weather Reports


time (UTC)temp
F
wind
direction
speed
knots
gust
knots
rain 1hr
in
rain 24hr
in
rain mn
in
humidity
%
barometer
mb
20260506152815 50 9 3.5 13.0 0.00 0.08 0.08 37 1020.0
20260506151815 50 5 7.0 10.4 0.00 0.08 0.08 45 1020.0
20260506150815 50 38 6.1 14.8 0.00 0.08 0.08 43 1019.9
20260506145815 50 6 6.1 13.0 0.00 0.08 0.08 41 1020.1
20260506144815 50 334 7.8 12.2 0.00 0.08 0.08 42 1019.6
20260506143815 49 22 7.8 13.9 0.00 0.08 0.08 42 1019.6
20260506142815 49 322 2.6 4.3 0.00 0.08 0.08 44 1020.0
20260506141815 49 7 6.1 15.6 0.00 0.08 0.08 44 1019.8
20260506140815 49 15 4.3 7.8 0.00 0.08 0.08 46 1019.8
20260506135835 48 314 2.6 7.0 0.00 0.08 0.08 49 1019.6
20260506134835 48 29 2.6 8.7 0.00 0.08 0.08 50 1019.5
20260506133815 48 311 6.1 15.6 0.00 0.08 0.08 48 1019.4
20260506132815 47 18 2.6 7.0 0.00 0.08 0.08 52 1019.2
20260506131815 47 13 3.5 7.0 0.00 0.08 0.08 52 1019.1
20260506130815 46 332 6.1 9.6 0.00 0.08 0.08 52 1018.8
20260506125817 46 333 6.1 10.4 0.00 0.08 0.08 54 1018.6
20260506124815 45 331 9.6 12.2 0.00 0.08 0.08 55 1018.2
20260506123817 45 319 5.2 10.4 0.00 0.08 0.08 56 1017.9
20260506122835 45 321 8.7 13.0 0.00 0.08 0.08 58 1017.8
20260506121817 45 333 7.8 14.8 0.00 0.08 0.08 60 1017.4
20260506120817 44 344 8.7 12.2 0.00 0.08 0.08 61 1017.0
20260506115817 44 320 7.0 15.6 0.00 0.08 0.08 62 1016.9
20260506114818 44 331 6.1 8.7 0.00 0.08 0.08 63 1016.9
20260506113817 44 2 3.5 7.0 0.00 0.08 0.08 63 1016.8
20260506112817 44 281 4.3 7.8 0.00 0.08 0.08 64 1016.3
20260506111817 44 342 2.6 8.7 0.00 0.08 0.08 65 1016.2
20260506110817 44 316 7.0 10.4 0.00 0.08 0.08 66 1015.9
20260506105817 43 273 6.1 13.9 0.00 0.08 0.08 69 1015.2
20260506104817 43 301 5.2 7.8 0.00 0.08 0.08 70 1015.2
20260506103817 43 335 11.3 18.2 0.00 0.08 0.08 73 1015.1
20260506102837 43 287 7.0 11.3 0.00 0.08 0.08 80 1015.4
20260506101817 43 125 2.6 5.2 0.00 0.08 0.08 84 1014.9
20260506100817 42 246 0.9 4.3 0.02 0.08 0.08 86 1014.7
20260506095816 42 267 7.8 11.3 0.06 0.08 0.08 86 1014.6
20260506094837 43 300 6.1 8.7 0.08 0.08 0.08 87 1014.8
20260506093816 43 242 9.6 13.9 0.08 0.08 0.08 84 1014.6
20260506092816 44 39 7.0 10.4 0.08 0.08 0.08 85 1014.4
20260506091816 44 41 10.4 13.9 0.08 0.08 0.08 84 1014.4
20260506090837 43 6 10.4 23.5 0.06 0.06 0.06 82 1014.7
20260506085817 46 326 12.2 14.8 0.02 0.02 0.02 83 1014.7
20260506084817 46 301 7.8 9.6 0.00 0.00 0.00 82 1014.0
20260506083816 46 247 5.2 8.7 0.00 0.00 0.00 82 1013.4
20260506082816 47 241 3.5 7.8 0.00 0.00 0.00 81 1013.3
20260506081816 47 241 7.8 11.3 0.00 0.00 0.00 80 1013.4
20260506080816 47 257 5.2 7.0 0.00 0.00 0.00 78 1013.3
20260506072816 48 291 3.5 7.0 0.00 0.00 0.00 76 1013.5
20260506071816 48 279 7.0 10.4 0.00 0.00 0.00 75 1013.7
20260506070816 48 285 8.7 13.0 0.00 0.00 0.00 76 1013.7
20260506061816 49 271 9.6 11.3 0.00 0.00 0.00 69 1013.1
20260506060816 51 282 5.2 8.7 0.00 0.00 0.00 65 1013.2
20260506050856 47 328 0.0 0.9 0.00 0.00 0.00 69 1011.2
20260506044815 49 328 2.6 3.5 0.00 0.00 0.00 66 1011.5
20260506043815 48 333 3.5 5.2 0.00 0.00 0.00 69 1011.2
20260506042815 47 333 1.7 2.6 0.00 0.00 0.00 70 1011.2
20260506041815 47 333 1.7 2.6 0.00 0.00 0.00 68 1010.9
20260506040815 48 331 2.6 3.5 0.00 0.00 0.00 67 1011.1
20260506035815 49 331 2.6 3.5 0.00 0.00 0.00 66 1011.4
20260506034815 48 316 5.2 8.7 0.00 0.00 0.00 67 1011.4
20260506033815 49 333 1.7 3.5 0.00 0.00 0.00 66 1011.0
20260506032815 49 329 2.6 3.5 0.00 0.00 0.00 65 1011.0
20260506031835 50 117 2.6 3.5 0.00 0.00 0.00 64 1011.0
20260506030837 50 117 0.0 1.7 0.00 0.00 0.00 63 1011.1
20260506025817 51 117 0.9 1.7 0.00 0.00 0.00 62 1011.3
20260506024817 51 117 0.0 0.9 0.00 0.00 0.00 61 1011.3
20260506023817 51 117 1.7 2.6 0.00 0.00 0.00 59 1011.0
20260506022817 53 117 0.9 1.7 0.00 0.00 0.00 57 1011.7
20260506021817 54 117 2.6 3.5 0.00 0.00 0.00 56 1011.5
20260506020817 54 112 2.6 3.5 0.00 0.00 0.00 55 1011.4
20260506015837 54 110 2.6 5.2 0.00 0.00 0.00 54 1011.7
20260506014817 54 132 1.7 3.5 0.00 0.00 0.00 54 1011.7
20260506013817 55 112 3.5 6.1 0.00 0.00 0.00 53 1011.8
20260506012815 55 112 1.7 6.1 0.00 0.00 0.00 52 1011.6
20260506011816 55 100 3.5 6.1 0.00 0.00 0.00 52 1011.6
20260506010817 56 112 2.6 4.3 0.00 0.00 0.00 52 1011.8
20260506005816 56 100 4.3 7.8 0.00 0.00 0.00 52 1012.0
20260506004816 56 113 5.2 7.0 0.00 0.00 0.00 52 1011.8
20260506003858 56 83 1.7 5.2 0.00 0.00 0.00 53 1011.8
20260506002816 56 90 3.5 7.0 0.00 0.00 0.00 53 1011.7
20260506001817 56 86 3.5 6.1 0.00 0.00 0.00 52 1011.9
20260506000816 56 132 2.6 5.2 0.00 0.00 0.00 53 1011.6
20260505235816 55 113 5.2 8.7 0.00 0.00 0.00 53 1011.4
20260505234817 55 116 3.5 6.1 0.00 0.00 0.00 53 1011.5
20260505233816 55 134 1.7 5.2 0.00 0.00 0.00 56 1011.6
20260505232816 54 90 6.1 7.0 0.00 0.00 0.00 57 1011.6
20260505231816 53 88 6.1 7.8 0.00 0.00 0.00 58 1011.4
20260505230816 53 69 4.3 6.1 0.00 0.00 0.00 58 1011.5
20260505225817 53 83 2.6 6.1 0.00 0.00 0.00 58 1011.6
20260505224816 52 87 3.5 6.1 0.00 0.00 0.00 59 1011.6
20260505223816 52 80 2.6 7.0 0.00 0.00 0.00 60 1011.5
20260505222816 53 90 4.3 7.8 0.00 0.00 0.00 58 1012.0
20260505221816 53 70 4.3 7.0 0.00 0.00 0.00 54 1012.0
20260505220816 53 108 3.5 5.2 0.00 0.00 0.00 55 1012.0
20260505215816 53 91 4.3 7.8 0.00 0.00 0.00 54 1011.6
20260505214816 53 85 3.5 7.0 0.00 0.00 0.00 54 1011.6
20260505213816 53 131 2.6 6.1 0.00 0.00 0.00 55 1011.5
20260505212836 53 145 2.6 9.6 0.00 0.00 0.00 56 1012.0
20260505211816 53 77 5.2 7.8 0.00 0.00 0.00 60 1012.1
20260505210816 53 78 3.5 6.1 0.00 0.00 0.00 58 1012.0
20260505205816 53 113 3.5 6.1 0.00 0.00 0.00 58 1012.0
20260505204816 52 110 1.7 4.3 0.00 0.00 0.00 59 1011.7
20260505203836 53 125 5.2 9.6 0.00 0.00 0.00 58 1011.8
20260505202816 53 91 2.6 7.8 0.00 0.00 0.00 59 1011.7
20260505201816 52 100 4.3 7.8 0.00 0.00 0.00 58 1011.7
20260505200836 52 109 3.5 6.1 0.00 0.00 0.00 60 1011.7
20260505195816 52 123 4.3 8.7 0.00 0.00 0.00 61 1011.9
20260505194816 51 142 6.1 8.7 0.00 0.00 0.00 62 1011.7
20260505193816 51 108 7.8 11.3 0.00 0.00 0.00 63 1011.7
20260505192816 51 106 6.1 9.6 0.00 0.00 0.00 62 1011.5
20260505191816 51 119 3.5 7.8 0.00 0.00 0.00 64 1011.7
20260505190816 51 144 6.1 9.6 0.00 0.00 0.00 65 1011.5
20260505185816 50 113 6.1 11.3 0.00 0.00 0.00 66 1011.2
20260505184816 50 120 7.8 9.6 0.00 0.00 0.00 67 1011.3
20260505183816 50 109 6.1 9.6 0.00 0.00 0.00 69 1011.3
20260505182816 50 159 7.8 10.4 0.00 0.00 0.00 69 1011.2
20260505181816 49 146 3.5 7.0 0.00 0.00 0.00 69 1011.2
20260505180836 49 107 1.7 8.7 0.00 0.00 0.00 69 1011.2
20260505175836 49 118 3.5 7.8 0.00 0.00 0.00 70 1011.3
20260505174816 49 125 7.0 10.4 0.00 0.00 0.00 71 1011.3
20260505173816 49 133 6.1 10.4 0.00 0.00 0.00 72 1011.3
20260505172816 48 152 8.7 12.2 0.00 0.00 0.00 73 1011.2
20260505171816 48 125 3.5 9.6 0.00 0.00 0.00 74 1011.2
20260505170816 48 122 3.5 7.8 0.00 0.00 0.00 76 1011.3
20260505165816 47 117 3.5 7.0 0.00 0.00 0.00 75 1011.2
20260505164816 48 91 4.3 7.0 0.00 0.00 0.00 75 1011.5
20260505163816 48 98 7.0 8.7 0.00 0.00 0.00 75 1011.5
20260505162836 47 84 7.8 11.3 0.00 0.00 0.00 75 1011.4
20260505161836 48 128 2.6 7.8 0.00 0.00 0.00 76 1011.3
20260505160815 48 113 3.5 10.4 0.00 0.00 0.00 78 1011.3